Time,TemperatureF,DewpointF,PressureIn,WindDirection,WindDirectionDegrees,WindSpeedMPH,WindSpeedGustMPH,Humidity,HourlyPrecipIn,Conditions,Clouds,dailyrainin,SoftwareType,DateUTC
2013-09-08 00:01:00,69.5,65.5,29.98,WSW,250,0.0,0.0,87,0.00,CLR,,0.00,WeatherDisplay:10.37,2013-09-08 04:01:00,
2013-09-08 00:02:00,69.5,65.5,29.98,WSW,250,0.0,0.0,87,0.00,CLR,,0.00,WeatherDisplay:10.37,2013-09-08 04:02:00,
2013-09-08 00:07:00,69.4,65.4,29.98,WSW,250,0.0,0.0,87,0.00,CLR,,0.00,WeatherDisplay:10.37,2013-09-08 04:07:00,
2013-09-08 00:12:00,69.4,65.4,29.98,WSW,250,0.0,0.0,87,0.00,CLR,,0.00,WeatherDisplay:10.37,2013-09-08 04:12:00,
2013-09-08 00:17:00,69.3,65.3,29.98,WSW,250,0.0,0.0,87,0.00,CLR,,0.00,WeatherDisplay:10.37,2013-09-08 04:17:00,
2013-09-08 00:22:00,69.2,65.5,29.98,WSW,250,0.0,0.0,88,0.00,CLR,,0.00,WeatherDisplay:10.37,2013-09-08 04:22:00,
2013-09-08 00:27:00,69.1,65.4,29.98,WSW,250,0.0,0.0,88,0.00,CLR,,0.00,WeatherDisplay:10.37,2013-09-08 04:27:00,
2013-09-08 00:32:00,69.0,65.3,29.98,WSW,250,0.0,0.0,88,0.00,CLR,,0.00,WeatherDisplay:10.37,2013-09-08 04:32:00,
2013-09-08 00:37:00,68.8,65.1,29.98,WSW,250,0.0,0.0,88,0.00,CLR,,0.00,WeatherDisplay:10.37,2013-09-08 04:37:00,
2013-09-08 00:42:00,68.7,65.0,29.98,WSW,250,0.0,0.0,88,0.00,CLR,,0.00,WeatherDisplay:10.37,2013-09-08 04:42:00,
2013-09-08 00:47:00,68.6,64.9,29.98,WSW,250,0.0,0.0,88,0.00,CLR,,0.00,WeatherDisplay:10.37,2013-09-08 04:47:00,
2013-09-08 00:52:00,68.5,65.1,29.98,WSW,250,1.2,1.2,89,0.00,CLR,,0.00,WeatherDisplay:10.37,2013-09-08 04:52:00,
2013-09-08 00:57:00,68.5,65.1,29.98,WSW,250,0.0,0.0,89,0.00,CLR,,0.00,WeatherDisplay:10.37,2013-09-08 04:57:00,
2013-09-08 01:02:00,68.4,65.0,29.98,WSW,250,0.0,0.0,89,0.00,CLR,,0.00,WeatherDisplay:10.37,2013-09-08 05:02:00,
2013-09-08 01:07:00,68.3,64.9,29.98,WSW,250,0.0,0.0,89,0.00,CLR,,0.00,WeatherDisplay:10.37,2013-09-08 05:07:00,
2013-09-08 01:12:00,68.3,64.9,29.98,WSW,250,0.0,0.0,89,0.00,CLR,,0.00,WeatherDisplay:10.37,2013-09-08 05:12:00,
2013-09-08 01:17:00,68.1,64.7,29.98,WSW,250,0.0,0.0,89,0.00,CLR,,0.00,WeatherDisplay:10.37,2013-09-08 05:17:00,
2013-09-08 01:22:00,68.0,65.0,29.99,WSW,250,0.0,0.0,90,0.00,CLR,,0.00,WeatherDisplay:10.37,2013-09-08 05:22:00,
2013-09-08 01:27:00,67.9,64.9,29.98,WSW,250,0.0,0.0,90,0.00,CLR,,0.00,WeatherDisplay:10.37,2013-09-08 05:27:00,
2013-09-08 01:32:00,67.9,64.9,29.98,WSW,250,0.0,0.0,90,0.00,CLR,,0.00,WeatherDisplay:10.37,2013-09-08 05:32:00,
2013-09-08 01:37:00,67.7,65.0,29.98,WSW,250,0.0,0.0,91,0.00,CLR,,0.00,WeatherDisplay:10.37,2013-09-08 05:37:00,
2013-09-08 01:42:00,67.6,64.9,29.98,WSW,250,0.0,0.0,91,0.00,CLR,,0.00,WeatherDisplay:10.37,2013-09-08 05:42:00,
2013-09-08 01:47:00,67.5,64.8,29.98,WSW,250,0.0,0.0,91,0.00,CLR,,0.00,WeatherDisplay:10.37,2013-09-08 05:47:00,
2013-09-08 01:52:00,67.4,64.7,29.98,WSW,250,0.0,0.0,91,0.00,CLR,,0.00,WeatherDisplay:10.37,2013-09-08 05:52:00,
2013-09-08 01:57:00,67.3,64.6,29.98,WSW,250,0.0,0.0,91,0.00,CLR,,0.00,WeatherDisplay:10.37,2013-09-08 05:57:00,
2013-09-08 02:02:00,67.3,64.9,29.98,WSW,250,1.2,1.2,92,0.00,CLR,,0.00,WeatherDisplay:10.37,2013-09-08 06:02:00,
2013-09-08 02:07:00,67.2,64.8,29.98,WSW,250,0.0,0.0,92,0.00,CLR,,0.00,WeatherDisplay:10.37,2013-09-08 06:07:00,
2013-09-08 02:12:00,67.2,64.8,29.98,WSW,250,0.0,0.0,92,0.00,CLR,,0.00,WeatherDisplay:10.37,2013-09-08 06:12:00,
2013-09-08 02:17:00,67.2,64.8,29.98,WSW,250,0.0,0.0,92,0.00,CLR,,0.00,WeatherDisplay:10.37,2013-09-08 06:17:00,
2013-09-08 02:22:00,67.1,64.7,29.98,WSW,250,0.0,0.0,92,0.00,CLR,,0.00,WeatherDisplay:10.37,2013-09-08 06:22:00,
2013-09-08 02:27:00,67.0,64.6,29.98,WSW,250,0.0,0.0,92,0.00,CLR,,0.00,WeatherDisplay:10.37,2013-09-08 06:27:00,
2013-09-08 02:32:00,66.9,64.5,29.98,WSW,250,1.2,0.0,92,0.00,CLR,,0.00,WeatherDisplay:10.37,2013-09-08 06:32:00,
2013-09-08 02:37:00,66.9,64.8,29.98,WSW,250,1.2,1.2,93,0.00,CLR,,0.00,WeatherDisplay:10.37,2013-09-08 06:37:00,
2013-09-08 02:42:00,66.9,64.8,29.98,WSW,250,0.0,0.0,93,0.00,CLR,,0.00,WeatherDisplay:10.37,2013-09-08 06:42:00,
2013-09-08 02:47:00,66.9,64.8,29.97,WSW,250,0.0,0.0,93,0.00,CLR,,0.00,WeatherDisplay:10.37,2013-09-08 06:47:00,
2013-09-08 02:52:00,66.8,64.7,29.97,WSW,250,0.0,0.0,93,0.00,CLR,,0.00,WeatherDisplay:10.37,2013-09-08 06:52:00,
2013-09-08 02:57:00,66.8,64.7,29.97,WSW,250,0.0,0.0,93,0.00,CLR,,0.00,WeatherDisplay:10.37,2013-09-08 06:57:00,
2013-09-08 03:02:00,66.7,64.6,29.97,WSW,250,0.0,0.0,93,0.00,CLR,,0.00,WeatherDisplay:10.37,2013-09-08 07:02:00,
2013-09-08 03:07:00,66.7,64.6,29.97,WSW,250,1.2,0.0,93,0.00,CLR,,0.00,WeatherDisplay:10.37,2013-09-08 07:07:00,
2013-09-08 03:12:00,66.6,64.5,29.97,WSW,250,0.0,0.0,93,0.00,CLR,,0.00,WeatherDisplay:10.37,2013-09-08 07:12:00,
2013-09-08 03:17:00,66.6,64.5,29.96,WSW,250,0.0,0.0,93,0.00,CLR,,0.00,WeatherDisplay:10.37,2013-09-08 07:17:00,
2013-09-08 03:22:00,66.5,64.4,29.96,WSW,250,0.0,0.0,93,0.00,CLR,,0.00,WeatherDisplay:10.37,2013-09-08 07:22:00,
2013-09-08 03:27:00,66.5,64.4,29.96,WSW,250,0.0,0.0,93,0.00,CLR,,0.00,WeatherDisplay:10.37,2013-09-08 07:27:00,
2013-09-08 03:32:00,66.4,64.3,29.96,WSW,250,0.0,0.0,93,0.00,CLR,,0.00,WeatherDisplay:10.37,2013-09-08 07:32:00,
2013-09-08 03:37:00,66.2,64.1,29.96,WSW,250,0.0,0.0,93,0.00,CLR,,0.00,WeatherDisplay:10.37,2013-09-08 07:37:00,
2013-09-08 03:42:00,66.1,64.0,29.96,WSW,250,0.0,0.0,93,0.00,CLR,,0.00,WeatherDisplay:10.37,2013-09-08 07:42:00,
2013-09-08 03:47:00,66.0,63.9,29.96,WSW,250,0.0,0.0,93,0.00,CLR,,0.00,WeatherDisplay:10.37,2013-09-08 07:47:00,
2013-09-08 03:52:00,65.9,63.8,29.96,WSW,250,0.0,0.0,93,0.00,CLR,,0.00,WeatherDisplay:10.37,2013-09-08 07:52:00,
2013-09-08 03:57:00,65.9,64.1,29.96,WSW,250,0.0,0.0,94,0.00,CLR,,0.00,WeatherDisplay:10.37,2013-09-08 07:57:00,
2013-09-08 04:02:00,65.9,64.1,29.96,WSW,250,0.0,0.0,94,0.00,CLR,,0.00,WeatherDisplay:10.37,2013-09-08 08:02:00,
2013-09-08 04:07:00,65.7,63.6,29.96,WSW,250,0.0,0.0,93,0.00,CLR,,0.00,WeatherDisplay:10.37,2013-09-08 08:07:00,
2013-09-08 04:12:00,65.5,63.4,29.96,WSW,250,0.0,0.0,93,0.00,CLR,,0.00,WeatherDisplay:10.37,2013-09-08 08:12:00,
2013-09-08 04:17:00,65.4,63.6,29.96,WSW,250,0.0,0.0,94,0.00,CLR,,0.00,WeatherDisplay:10.37,2013-09-08 08:17:00,
2013-09-08 04:22:00,65.2,63.4,29.96,WSW,250,0.0,0.0,94,0.00,CLR,,0.00,WeatherDisplay:10.37,2013-09-08 08:22:00,
2013-09-08 04:27:00,65.1,63.3,29.96,WSW,250,0.0,0.0,94,0.00,CLR,,0.00,WeatherDisplay:10.37,2013-09-08 08:27:00,
2013-09-08 04:32:00,65.0,63.2,29.96,WSW,250,0.0,0.0,94,0.00,CLR,,0.00,WeatherDisplay:10.37,2013-09-08 08:32:00,
2013-09-08 04:37:00,65.0,63.2,29.96,WSW,250,0.0,0.0,94,0.00,CLR,,0.00,WeatherDisplay:10.37,2013-09-08 08:37:00,
2013-09-08 04:42:00,64.9,63.1,29.96,WSW,250,0.0,0.0,94,0.00,CLR,,0.00,WeatherDisplay:10.37,2013-09-08 08:42:00,
2013-09-08 04:47:00,64.8,63.0,29.96,WSW,250,0.0,0.0,94,0.00,CLR,,0.00,WeatherDisplay:10.37,2013-09-08 08:47:00,
2013-09-08 04:52:00,64.7,62.9,29.96,WSW,250,0.0,0.0,94,0.00,CLR,,0.00,WeatherDisplay:10.37,2013-09-08 08:52:00,
2013-09-08 04:57:00,64.7,62.9,29.96,WSW,250,0.0,0.0,94,0.00,CLR,,0.00,WeatherDisplay:10.37,2013-09-08 08:57:00,
2013-09-08 05:02:00,64.7,62.9,29.96,WSW,250,0.0,0.0,94,0.00,CLR,,0.00,WeatherDisplay:10.37,2013-09-08 09:02:00,
2013-09-08 05:07:00,64.6,62.8,29.96,WSW,250,0.0,0.0,94,0.00,CLR,,0.00,WeatherDisplay:10.37,2013-09-08 09:07:00,
2013-09-08 05:12:00,64.5,62.7,29.96,WSW,250,0.0,0.0,94,0.00,CLR,,0.00,WeatherDisplay:10.37,2013-09-08 09:12:00,
2013-09-08 05:17:00,64.4,62.6,29.96,WSW,250,0.0,0.0,94,0.00,CLR,,0.00,WeatherDisplay:10.37,2013-09-08 09:17:00,
2013-09-08 05:22:00,64.3,62.5,29.96,WSW,250,0.0,0.0,94,0.00,CLR,,0.00,WeatherDisplay:10.37,2013-09-08 09:22:00,
2013-09-08 05:27:00,64.4,62.9,29.96,WSW,250,0.0,0.0,95,0.00,CLR,,0.00,WeatherDisplay:10.37,2013-09-08 09:27:00,
2013-09-08 05:32:00,64.6,63.1,29.96,WSW,250,0.0,0.0,95,0.00,CLR,,0.00,WeatherDisplay:10.37,2013-09-08 09:32:00,
2013-09-08 05:37:00,64.8,63.3,29.96,WSW,250,0.0,0.0,95,0.00,CLR,,0.00,WeatherDisplay:10.37,2013-09-08 09:37:00,
2013-09-08 05:42:00,64.8,63.3,29.96,WSW,250,0.0,0.0,95,0.00,CLR,,0.00,WeatherDisplay:10.37,2013-09-08 09:42:00,
2013-09-08 05:47:00,64.8,63.3,29.97,WSW,250,0.0,0.0,95,0.00,CLR,,0.00,WeatherDisplay:10.37,2013-09-08 09:47:00,
2013-09-08 05:52:00,64.9,63.4,29.97,WSW,250,0.0,0.0,95,0.00,CLR,,0.00,WeatherDisplay:10.37,2013-09-08 09:52:00,
2013-09-08 05:57:00,65.0,63.5,29.96,WSW,250,0.0,0.0,95,0.00,CLR,,0.00,WeatherDisplay:10.37,2013-09-08 09:57:00,
2013-09-08 06:02:00,65.0,63.5,29.96,WSW,250,0.0,0.0,95,0.00,CLR,,0.00,WeatherDisplay:10.37,2013-09-08 10:02:00,
2013-09-08 06:07:00,65.1,63.6,29.97,WSW,250,0.0,0.0,95,0.00,CLR,,0.00,WeatherDisplay:10.37,2013-09-08 10:07:00,
2013-09-08 06:12:00,65.0,63.5,29.97,WSW,250,0.0,0.0,95,0.00,CLR,,0.00,WeatherDisplay:10.37,2013-09-08 10:12:00,
2013-09-08 06:17:00,64.7,63.2,29.97,WSW,250,0.0,0.0,95,0.00,CLR,,0.00,WeatherDisplay:10.37,2013-09-08 10:17:00,
2013-09-08 06:22:00,64.5,63.0,29.97,WSW,250,0.0,0.0,95,0.00,CLR,,0.00,WeatherDisplay:10.37,2013-09-08 10:22:00,
2013-09-08 06:27:00,64.4,62.9,29.97,WSW,250,0.0,0.0,95,0.00,CLR,,0.00,WeatherDisplay:10.37,2013-09-08 10:27:00,
2013-09-08 06:32:00,64.3,62.8,29.97,WSW,250,0.0,0.0,95,0.00,CLR,,0.00,WeatherDisplay:10.37,2013-09-08 10:32:00,
2013-09-08 06:37:00,64.3,62.8,29.97,WSW,250,0.0,0.0,95,0.00,CLR,,0.00,WeatherDisplay:10.37,2013-09-08 10:37:00,
2013-09-08 06:42:00,64.4,62.9,29.97,WSW,250,0.0,0.0,95,0.00,CLR,,0.00,WeatherDisplay:10.37,2013-09-08 10:42:00,
2013-09-08 06:47:00,64.5,63.0,29.97,WSW,250,0.0,0.0,95,0.00,CLR,,0.00,WeatherDisplay:10.37,2013-09-08 10:47:00,
2013-09-08 06:52:00,64.5,63.0,29.97,WSW,250,0.0,0.0,95,0.00,CLR,,0.00,WeatherDisplay:10.37,2013-09-08 10:52:00,
2013-09-08 06:57:00,64.6,63.1,29.97,WSW,250,0.0,0.0,95,0.00,CLR,,0.00,WeatherDisplay:10.37,2013-09-08 10:57:00,
2013-09-08 07:02:00,64.6,63.1,29.97,WSW,250,0.0,0.0,95,0.00,CLR,,0.00,WeatherDisplay:10.37,2013-09-08 11:02:00,
2013-09-08 07:07:00,64.4,62.9,29.97,WSW,250,0.0,0.0,95,0.00,CLR,,0.00,WeatherDisplay:10.37,2013-09-08 11:07:00,
2013-09-08 07:12:00,64.3,62.8,29.98,WSW,250,0.0,0.0,95,0.00,CLR,,0.00,WeatherDisplay:10.37,2013-09-08 11:12:00,
2013-09-08 07:17:00,64.3,62.8,29.98,WSW,250,0.0,0.0,95,0.00,CLR,,0.00,WeatherDisplay:10.37,2013-09-08 11:17:00,
2013-09-08 07:22:00,64.2,62.7,29.98,WSW,250,0.0,0.0,95,0.00,CLR,,0.00,WeatherDisplay:10.37,2013-09-08 11:22:00,
2013-09-08 07:27:00,64.2,62.7,29.98,WSW,250,0.0,0.0,95,0.00,CLR,,0.00,WeatherDisplay:10.37,2013-09-08 11:27:00,
2013-09-08 07:32:00,64.2,62.7,29.98,WSW,250,0.0,0.0,95,0.00,CLR,,0.00,WeatherDisplay:10.37,2013-09-08 11:32:00,
2013-09-08 07:37:00,64.3,62.8,29.98,WSW,250,0.0,0.0,95,0.00,CLR,,0.00,WeatherDisplay:10.37,2013-09-08 11:37:00,
2013-09-08 07:42:00,64.5,63.3,29.98,WSW,250,0.0,0.0,96,0.00,CLR,,0.00,WeatherDisplay:10.37,2013-09-08 11:42:00,
2013-09-08 07:47:00,64.8,63.3,29.98,WSW,250,0.0,0.0,95,0.00,CLR,,0.00,WeatherDisplay:10.37,2013-09-08 11:47:00,
2013-09-08 07:52:00,64.9,63.7,29.98,WSW,250,0.0,0.0,96,0.00,CLR,,0.00,WeatherDisplay:10.37,2013-09-08 11:52:00,
2013-09-08 07:57:00,65.1,63.9,29.98,WSW,250,0.0,0.0,96,0.00,CLR,,0.00,WeatherDisplay:10.37,2013-09-08 11:57:00,
2013-09-08 08:02:00,65.3,64.1,29.98,WSW,250,0.0,0.0,96,0.00,CLR,,0.00,WeatherDisplay:10.37,2013-09-08 12:02:00,
2013-09-08 08:07:00,65.6,64.4,29.98,WSW,250,0.0,0.0,96,0.00,CLR,,0.00,WeatherDisplay:10.37,2013-09-08 12:07:00,
2013-09-08 08:12:00,65.8,64.6,29.98,WSW,250,0.0,0.0,96,0.00,CLR,,0.00,WeatherDisplay:10.37,2013-09-08 12:12:00,
2013-09-08 08:17:00,66.2,65.0,29.97,WSW,250,0.0,0.0,96,0.00,CLR,,0.00,WeatherDisplay:10.37,2013-09-08 12:17:00,
2013-09-08 08:22:00,66.4,65.2,29.97,WSW,250,0.0,0.0,96,0.00,CLR,,0.00,WeatherDisplay:10.37,2013-09-08 12:22:00,
2013-09-08 08:27:00,66.7,65.5,29.98,WSW,250,0.0,0.0,96,0.00,CLR,,0.00,WeatherDisplay:10.37,2013-09-08 12:27:00,
2013-09-08 08:32:00,67.1,65.9,29.98,WSW,250,0.0,0.0,96,0.00,CLR,,0.00,WeatherDisplay:10.37,2013-09-08 12:32:00,
2013-09-08 08:37:00,67.3,66.1,29.97,WSW,250,0.0,0.0,96,0.00,CLR,,0.00,WeatherDisplay:10.37,2013-09-08 12:37:00,
2013-09-08 08:42:00,67.7,66.5,29.98,WSW,250,0.0,0.0,96,0.00,CLR,,0.00,WeatherDisplay:10.37,2013-09-08 12:42:00,
2013-09-08 08:47:00,68.1,66.9,29.97,WSW,250,0.0,0.0,96,0.00,CLR,,0.00,WeatherDisplay:10.37,2013-09-08 12:47:00,
2013-09-08 08:52:00,68.5,67.3,29.97,WSW,250,0.0,0.0,96,0.00,CLR,,0.00,WeatherDisplay:10.37,2013-09-08 12:52:00,
2013-09-08 08:57:00,68.9,67.7,29.97,WSW,250,0.0,0.0,96,0.00,CLR,,0.00,WeatherDisplay:10.37,2013-09-08 12:57:00,
2013-09-08 09:02:00,69.3,67.8,29.97,WSW,250,0.0,0.0,95,0.00,CLR,,0.00,WeatherDisplay:10.37,2013-09-08 13:02:00,
2013-09-08 09:07:00,69.8,68.3,29.97,WSW,250,0.0,0.0,95,0.00,CLR,,0.00,WeatherDisplay:10.37,2013-09-08 13:07:00,
2013-09-08 09:12:00,70.3,68.5,29.97,WSW,250,0.0,0.0,94,0.00,CLR,,0.00,WeatherDisplay:10.37,2013-09-08 13:12:00,
2013-09-08 09:17:00,70.8,68.7,29.96,WSW,250,0.0,0.0,93,0.00,CLR,,0.00,WeatherDisplay:10.37,2013-09-08 13:17:00,
2013-09-08 09:22:00,71.3,68.5,29.97,WSW,250,0.0,0.0,91,0.00,CLR,,0.00,WeatherDisplay:10.37,2013-09-08 13:22:00,
2013-09-08 09:27:00,71.8,68.7,29.97,WSW,250,0.0,0.0,90,0.00,CLR,,0.00,WeatherDisplay:10.37,2013-09-08 13:27:00,
2013-09-08 09:32:00,72.6,69.8,29.97,WSW,248,0.0,0.0,91,0.00,CLR,,0.00,WeatherDisplay:10.37,2013-09-08 13:32:00,
2013-09-08 09:37:00,73.3,69.9,29.97,West,259,0.0,0.0,89,0.00,CLR,,0.00,WeatherDisplay:10.37,2013-09-08 13:37:00,
2013-09-08 09:42:00,73.9,70.1,29.97,SW,234,0.0,0.0,88,0.00,CLR,,0.00,WeatherDisplay:10.37,2013-09-08 13:42:00,
2013-09-08 09:47:00,74.4,69.9,29.97,SW,233,0.0,0.0,86,0.00,CLR,,0.00,WeatherDisplay:10.37,2013-09-08 13:47:00,
2013-09-08 09:52:00,74.9,70.1,29.97,SW,236,0.0,0.0,85,0.00,CLR,,0.00,WeatherDisplay:10.37,2013-09-08 13:52:00,
2013-09-08 09:57:00,75.3,70.5,29.97,WNW,292,0.0,0.0,85,0.00,CLR,,0.00,WeatherDisplay:10.37,2013-09-08 13:57:00,
2013-09-08 10:02:00,75.7,70.2,29.97,West,280,0.0,0.0,83,0.00,CLR,,0.00,WeatherDisplay:10.37,2013-09-08 14:02:00,
2013-09-08 10:07:00,76.2,70.7,29.97,South,185,0.0,0.0,83,0.00,CLR,,0.00,WeatherDisplay:10.37,2013-09-08 14:07:00,
2013-09-08 10:12:00,76.7,70.8,29.97,WSW,239,0.0,0.0,82,0.00,CLR,,0.00,WeatherDisplay:10.37,2013-09-08 14:12:00,
2013-09-08 10:17:00,77.3,71.0,29.97,WSW,239,0.0,0.0,81,0.00,CLR,,0.00,WeatherDisplay:10.37,2013-09-08 14:17:00,
2013-09-08 10:22:00,77.8,71.1,29.97,WSW,239,0.0,0.0,80,0.00,CLR,,0.00,WeatherDisplay:10.37,2013-09-08 14:22:00,
2013-09-08 10:27:00,78.4,71.3,29.97,WSW,238,0.0,0.0,79,0.00,CLR,,0.00,WeatherDisplay:10.37,2013-09-08 14:27:00,
2013-09-08 10:32:00,78.8,71.4,29.97,WSW,239,0.0,0.0,78,0.00,CLR,,0.00,WeatherDisplay:10.37,2013-09-08 14:32:00,
2013-09-08 10:37:00,79.3,71.8,29.97,WSW,238,1.2,0.0,78,0.00,CLR,,0.00,WeatherDisplay:10.37,2013-09-08 14:37:00,
2013-09-08 10:42:00,79.8,71.6,29.97,WSW,239,0.0,0.0,76,0.00,CLR,,0.00,WeatherDisplay:10.37,2013-09-08 14:42:00,
2013-09-08 10:47:00,80.2,70.8,29.97,WSW,239,0.0,0.0,73,0.00,CLR,,0.00,WeatherDisplay:10.37,2013-09-08 14:47:00,
2013-09-08 10:52:00,80.6,71.5,29.97,SW,232,2.0,0.0,74,0.00,CLR,,0.00,WeatherDisplay:10.37,2013-09-08 14:52:00,
2013-09-08 10:57:00,80.8,71.7,29.97,WSW,247,0.0,0.0,74,0.00,CLR,,0.00,WeatherDisplay:10.37,2013-09-08 14:57:00,
2013-09-08 11:02:00,81.1,70.8,29.97,NNW,336,1.2,0.0,71,0.00,CLR,,0.00,WeatherDisplay:10.37,2013-09-08 15:02:00,
2013-09-08 11:07:00,81.3,70.6,29.97,NW,321,0.0,0.0,70,0.00,CLR,,0.00,WeatherDisplay:10.37,2013-09-08 15:07:00,
2013-09-08 11:12:00,81.6,70.4,29.97,NNE,32,0.0,0.0,69,0.00,CLR,,0.00,WeatherDisplay:10.37,2013-09-08 15:12:00,
2013-09-08 11:17:00,82.0,71.7,29.97,WNW,286,3.5,3.5,71,0.00,CLR,,0.00,WeatherDisplay:10.37,2013-09-08 15:17:00,
2013-09-08 11:22:00,82.2,71.4,29.97,West,275,0.0,0.0,70,0.00,CLR,,0.00,WeatherDisplay:10.37,2013-09-08 15:22:00,
2013-09-08 11:27:00,82.2,68.8,29.97,North,350,5.8,5.8,64,0.00,CLR,,0.00,WeatherDisplay:10.37,2013-09-08 15:27:00,
2013-09-08 11:32:00,82.4,69.9,29.97,NNW,348,0.0,0.0,66,0.00,CLR,,0.00,WeatherDisplay:10.37,2013-09-08 15:32:00,
2013-09-08 11:37:00,82.7,69.3,29.97,North,360,0.0,0.0,64,0.00,CLR,,0.00,WeatherDisplay:10.37,2013-09-08 15:37:00,
2013-09-08 11:42:00,82.4,68.5,29.97,NE,44,4.6,4.6,63,0.00,CLR,,0.00,WeatherDisplay:10.37,2013-09-08 15:42:00,
2013-09-08 11:47:00,82.2,67.4,29.96,NE,44,3.0,3.0,61,0.00,CLR,,0.00,WeatherDisplay:10.37,2013-09-08 15:47:00,
2013-09-08 11:52:00,82.1,68.3,29.96,NE,49,6.9,6.9,63,0.00,CLR,,0.00,WeatherDisplay:10.37,2013-09-08 15:52:00,
2013-09-08 11:57:00,82.0,69.1,29.97,NE,42,3.5,3.5,65,0.00,CLR,,0.00,WeatherDisplay:10.37,2013-09-08 15:57:00,
2013-09-08 12:02:00,81.8,68.9,29.97,NNE,16,3.5,3.5,65,0.00,CLR,,0.00,WeatherDisplay:10.37,2013-09-08 16:02:00,
2013-09-08 12:07:00,81.7,69.2,29.97,North,5,0.0,0.0,66,0.00,CLR,,0.00,WeatherDisplay:10.37,2013-09-08 16:07:00,
2013-09-08 12:12:00,81.7,69.2,29.97,NNE,33,5.8,5.8,66,0.00,CLR,,0.00,WeatherDisplay:10.37,2013-09-08 16:12:00,
2013-09-08 12:17:00,81.5,68.6,29.97,NNE,21,3.5,3.5,65,0.00,CLR,,0.00,WeatherDisplay:10.37,2013-09-08 16:17:00,
2013-09-08 12:22:00,81.2,69.6,29.97,NE,46,3.5,3.5,68,0.00,CLR,,0.00,WeatherDisplay:10.37,2013-09-08 16:22:00,
2013-09-08 12:27:00,81.5,69.0,29.97,NNE,27,4.0,4.0,66,0.00,CLR,,0.00,WeatherDisplay:10.37,2013-09-08 16:27:00,
2013-09-08 12:32:00,81.9,67.1,29.97,East,82,3.5,3.5,61,0.00,CLR,,0.00,WeatherDisplay:10.37,2013-09-08 16:32:00,
2013-09-08 12:37:00,82.2,69.7,29.97,West,277,0.0,0.0,66,0.00,CLR,,0.00,WeatherDisplay:10.37,2013-09-08 16:37:00,
2013-09-08 12:42:00,82.5,68.6,29.97,NE,52,4.6,4.6,63,0.00,CLR,,0.00,WeatherDisplay:10.37,2013-09-08 16:42:00,
2013-09-08 12:47:00,82.8,69.4,29.96,NNE,24,0.0,0.0,64,0.00,CLR,,0.00,WeatherDisplay:10.37,2013-09-08 16:47:00,
2013-09-08 12:52:00,83.3,68.0,29.97,NE,52,3.5,3.5,60,0.00,CLR,,0.00,WeatherDisplay:10.37,2013-09-08 16:52:00,
2013-09-08 12:57:00,83.6,69.7,29.96,NNW,340,4.0,4.0,63,0.00,CLR,,0.00,WeatherDisplay:10.37,2013-09-08 16:57:00,
2013-09-08 13:02:00,83.8,68.4,29.96,North,5,4.6,4.6,60,0.00,CLR,,0.00,WeatherDisplay:10.37,2013-09-08 17:02:00,
2013-09-08 13:07:00,83.7,67.8,29.96,NNE,30,5.0,5.0,59,0.00,CLR,,0.00,WeatherDisplay:10.37,2013-09-08 17:07:00,
2013-09-08 13:12:00,83.3,68.4,29.96,NNE,33,1.2,0.0,61,0.00,CLR,,0.00,WeatherDisplay:10.37,2013-09-08 17:12:00,
2013-09-08 13:17:00,83.2,68.8,29.96,ENE,67,4.0,4.0,62,0.00,CLR,,0.00,WeatherDisplay:10.37,2013-09-08 17:17:00,
2013-09-08 13:22:00,83.0,68.6,29.96,ENE,65,0.0,0.0,62,0.00,CLR,,0.00,WeatherDisplay:10.37,2013-09-08 17:22:00,
2013-09-08 13:27:00,83.1,68.7,29.96,East,80,0.0,0.0,62,0.00,CLR,,0.00,WeatherDisplay:10.37,2013-09-08 17:27:00,
2013-09-08 13:32:00,83.5,68.6,29.96,SSE,163,0.0,0.0,61,0.00,CLR,,0.00,WeatherDisplay:10.37,2013-09-08 17:32:00,
2013-09-08 13:37:00,83.6,68.7,29.95,ENE,62,1.2,0.0,61,0.00,CLR,,0.00,WeatherDisplay:10.37,2013-09-08 17:37:00,
2013-09-08 13:42:00,83.5,69.6,29.95,ESE,114,0.0,0.0,63,0.00,CLR,,0.00,WeatherDisplay:10.37,2013-09-08 17:42:00,
2013-09-08 13:47:00,83.2,67.9,29.95,ENE,69,2.3,2.3,60,0.00,CLR,,0.00,WeatherDisplay:10.37,2013-09-08 17:47:00,
2013-09-08 13:52:00,82.8,67.5,29.95,East,89,0.0,0.0,60,0.00,CLR,,0.00,WeatherDisplay:10.37,2013-09-08 17:52:00,
2013-09-08 13:57:00,82.7,68.4,29.95,East,88,0.0,0.0,62,0.00,CLR,,0.00,WeatherDisplay:10.37,2013-09-08 17:57:00,
2013-09-08 14:02:00,83.0,69.1,29.95,East,100,1.2,0.0,63,0.00,CLR,,0.00,WeatherDisplay:10.37,2013-09-08 18:02:00,
2013-09-08 14:07:00,83.5,68.2,29.95,South,188,0.0,0.0,60,0.00,CLR,,0.00,WeatherDisplay:10.37,2013-09-08 18:07:00,
2013-09-08 14:12:00,83.8,67.9,29.95,SSW,194,3.5,3.5,59,0.00,CLR,,0.00,WeatherDisplay:10.37,2013-09-08 18:12:00,
2013-09-08 14:17:00,83.8,66.9,29.94,SSW,200,0.0,0.0,57,0.00,CLR,,0.00,WeatherDisplay:10.37,2013-09-08 18:17:00,
2013-09-08 14:22:00,83.8,65.9,29.94,SSW,200,0.0,0.0,55,0.00,CLR,,0.00,WeatherDisplay:10.37,2013-09-08 18:22:00,
2013-09-08 14:27:00,83.9,68.5,29.95,SSW,201,0.0,0.0,60,0.00,CLR,,0.00,WeatherDisplay:10.37,2013-09-08 18:27:00,
2013-09-08 14:32:00,84.0,68.1,29.94,SSW,200,0.0,0.0,59,0.00,CLR,,0.00,WeatherDisplay:10.37,2013-09-08 18:32:00,
2013-09-08 14:37:00,84.1,68.7,29.94,SSW,201,0.0,0.0,60,0.00,CLR,,0.00,WeatherDisplay:10.37,2013-09-08 18:37:00,
2013-09-08 14:42:00,84.3,66.9,29.94,SSW,200,0.0,0.0,56,0.00,CLR,,0.00,WeatherDisplay:10.37,2013-09-08 18:42:00,
2013-09-08 14:47:00,84.6,67.7,29.94,SSW,201,0.0,0.0,57,0.00,CLR,,0.00,WeatherDisplay:10.37,2013-09-08 18:47:00,
2013-09-08 14:52:00,84.7,66.7,29.94,SSE,164,0.0,0.0,55,0.00,CLR,,0.00,WeatherDisplay:10.37,2013-09-08 18:52:00,
2013-09-08 14:57:00,84.5,67.1,29.94,SE,140,0.0,0.0,56,0.00,CLR,,0.00,WeatherDisplay:10.37,2013-09-08 18:57:00,
2013-09-08 15:02:00,84.7,70.2,29.93,SE,141,0.0,0.0,62,0.00,CLR,,0.00,WeatherDisplay:10.37,2013-09-08 19:02:00,
2013-09-08 15:07:00,84.9,65.9,29.93,SSE,148,0.0,0.0,53,0.00,CLR,,0.00,WeatherDisplay:10.37,2013-09-08 19:07:00,
2013-09-08 15:12:00,85.1,67.1,29.93,SE,146,0.0,0.0,55,0.00,CLR,,0.00,WeatherDisplay:10.37,2013-09-08 19:12:00,
2013-09-08 15:17:00,85.3,67.3,29.93,SSE,148,1.2,0.0,55,0.00,CLR,,0.00,WeatherDisplay:10.37,2013-09-08 19:17:00,
2013-09-08 15:22:00,85.3,65.7,29.93,SSE,168,0.0,0.0,52,0.00,CLR,,0.00,WeatherDisplay:10.37,2013-09-08 19:22:00,
2013-09-08 15:27:00,85.4,67.4,29.93,SSE,168,0.0,0.0,55,0.00,CLR,,0.00,WeatherDisplay:10.37,2013-09-08 19:27:00,
2013-09-08 15:32:00,85.6,67.6,29.93,SSE,168,1.2,1.2,55,0.00,CLR,,0.00,WeatherDisplay:10.37,2013-09-08 19:32:00,
2013-09-08 15:37:00,85.9,67.3,29.93,SSE,168,0.0,0.0,54,0.00,CLR,,0.00,WeatherDisplay:10.37,2013-09-08 19:37:00,
2013-09-08 15:42:00,86.3,67.7,29.93,WSW,241,0.0,0.0,54,0.00,CLR,,0.00,WeatherDisplay:10.37,2013-09-08 19:42:00,
2013-09-08 15:47:00,86.5,68.4,29.93,WSW,242,0.0,0.0,55,0.00,CLR,,0.00,WeatherDisplay:10.37,2013-09-08 19:47:00,
2013-09-08 15:52:00,86.8,68.7,29.93,South,176,0.0,0.0,55,0.00,CLR,,0.00,WeatherDisplay:10.37,2013-09-08 19:52:00,
2013-09-08 15:57:00,87.0,68.3,29.93,WSW,245,2.3,0.0,54,0.00,CLR,,0.00,WeatherDisplay:10.37,2013-09-08 19:57:00,
2013-09-08 16:02:00,87.0,68.9,29.93,SW,236,4.0,4.0,55,0.00,CLR,,0.00,WeatherDisplay:10.37,2013-09-08 20:02:00,
2013-09-08 16:07:00,86.9,69.3,29.92,WSW,246,0.0,0.0,56,0.00,CLR,,0.00,WeatherDisplay:10.37,2013-09-08 20:07:00,
2013-09-08 16:12:00,86.8,67.6,29.93,WSW,245,0.0,0.0,53,0.00,CLR,,0.00,WeatherDisplay:10.37,2013-09-08 20:12:00,
2013-09-08 16:17:00,86.6,67.4,29.92,WSW,246,0.0,0.0,53,0.00,CLR,,0.00,WeatherDisplay:10.37,2013-09-08 20:17:00,
2013-09-08 16:22:00,86.4,67.8,29.92,WSW,246,0.0,0.0,54,0.00,CLR,,0.00,WeatherDisplay:10.37,2013-09-08 20:22:00,
2013-09-08 16:27:00,86.1,70.1,29.92,WSW,245,0.0,0.0,59,0.00,CLR,,0.00,WeatherDisplay:10.37,2013-09-08 20:27:00,
2013-09-08 16:32:00,86.0,70.5,29.92,WSW,246,0.0,0.0,60,0.00,CLR,,0.00,WeatherDisplay:10.37,2013-09-08 20:32:00,
2013-09-08 16:37:00,85.7,68.7,29.92,WSW,246,0.0,0.0,57,0.00,CLR,,0.00,WeatherDisplay:10.37,2013-09-08 20:37:00,
2013-09-08 16:42:00,85.5,70.0,29.92,WSW,246,0.0,0.0,60,0.00,CLR,,0.00,WeatherDisplay:10.37,2013-09-08 20:42:00,
2013-09-08 16:47:00,85.2,71.2,29.92,SSW,196,0.0,0.0,63,0.00,CLR,,0.00,WeatherDisplay:10.37,2013-09-08 20:47:00,
2013-09-08 16:52:00,84.8,69.4,29.92,SSW,195,0.0,0.0,60,0.00,CLR,,0.00,WeatherDisplay:10.37,2013-09-08 20:52:00,
2013-09-08 16:57:00,84.5,70.5,29.92,SSW,196,0.0,0.0,63,0.00,CLR,,0.00,WeatherDisplay:10.37,2013-09-08 20:57:00,
2013-09-08 17:02:00,84.4,70.9,29.92,SSW,195,0.0,0.0,64,0.00,CLR,,0.00,WeatherDisplay:10.37,2013-09-08 21:02:00,
2013-09-08 17:07:00,84.3,69.4,29.92,SSW,195,0.0,0.0,61,0.00,CLR,,0.00,WeatherDisplay:10.37,2013-09-08 21:07:00,
2013-09-08 17:12:00,84.4,67.5,29.92,SSW,196,0.0,0.0,57,0.00,CLR,,0.00,WeatherDisplay:10.37,2013-09-08 21:12:00,
2013-09-08 17:17:00,84.6,67.7,29.92,SSW,196,0.0,0.0,57,0.00,CLR,,0.00,WeatherDisplay:10.37,2013-09-08 21:17:00,
2013-09-08 17:22:00,85.0,67.5,29.92,SSW,196,0.0,0.0,56,0.00,CLR,,0.00,WeatherDisplay:10.37,2013-09-08 21:22:00,
2013-09-08 17:27:00,85.3,67.8,29.92,SSW,195,0.0,0.0,56,0.00,CLR,,0.00,WeatherDisplay:10.37,2013-09-08 21:27:00,
2013-09-08 17:32:00,85.6,68.1,29.92,WSW,256,0.0,0.0,56,0.00,CLR,,0.00,WeatherDisplay:10.37,2013-09-08 21:32:00,
2013-09-08 17:37:00,85.9,68.4,29.92,WSW,256,0.0,0.0,56,0.00,CLR,,0.00,WeatherDisplay:10.37,2013-09-08 21:37:00,
2013-09-08 17:42:00,86.1,70.1,29.92,WSW,256,0.0,0.1,59,0.00,CLR,,0.00,WeatherDisplay:10.37,2013-09-08 21:42:00,
2013-09-08 17:47:00,86.0,71.0,29.92,South,184,0.0,0.0,61,0.00,CLR,,0.00,WeatherDisplay:10.37,2013-09-08 21:47:00,
2013-09-08 17:52:00,85.8,71.7,29.92,South,184,0.0,0.0,63,0.00,CLR,,0.00,WeatherDisplay:10.37,2013-09-08 21:52:00,
2013-09-08 17:57:00,85.6,70.1,29.92,South,184,0.0,0.0,60,0.00,CLR,,0.00,WeatherDisplay:10.37,2013-09-08 21:57:00,
2013-09-08 18:02:00,85.5,71.0,29.92,South,184,0.0,0.0,62,0.00,CLR,,0.00,WeatherDisplay:10.37,2013-09-08 22:02:00,
2013-09-08 18:07:00,85.2,70.7,29.92,ENE,72,0.0,0.0,62,0.00,CLR,,0.00,WeatherDisplay:10.37,2013-09-08 22:07:00,
2013-09-08 18:12:00,84.8,71.3,29.92,SE,128,0.0,0.0,64,0.00,CLR,,0.00,WeatherDisplay:10.37,2013-09-08 22:12:00,
2013-09-08 18:17:00,84.1,70.6,29.92,SE,128,0.0,0.0,64,0.00,CLR,,0.00,WeatherDisplay:10.37,2013-09-08 22:17:00,
2013-09-08 18:22:00,83.3,70.8,29.92,SE,128,0.0,0.0,66,0.00,CLR,,0.00,WeatherDisplay:10.37,2013-09-08 22:22:00,
2013-09-08 18:27:00,82.8,70.3,29.92,North,355,0.0,0.0,66,0.00,CLR,,0.00,WeatherDisplay:10.37,2013-09-08 22:27:00,
2013-09-08 18:32:00,82.5,70.4,29.92,North,355,0.0,0.0,67,0.00,CLR,,0.00,WeatherDisplay:10.37,2013-09-08 22:32:00,
2013-09-08 18:37:00,82.2,71.4,29.92,North,355,0.0,0.0,70,0.00,CLR,,0.00,WeatherDisplay:10.37,2013-09-08 22:37:00,
2013-09-08 18:42:00,81.8,70.6,29.92,North,355,0.0,0.0,69,0.00,CLR,,0.00,WeatherDisplay:10.37,2013-09-08 22:42:00,
2013-09-08 18:47:00,81.5,69.9,29.92,North,355,0.0,0.0,68,0.00,CLR,,0.00,WeatherDisplay:10.37,2013-09-08 22:47:00,
2013-09-08 18:52:00,81.2,68.8,29.92,North,355,0.0,0.0,66,0.00,CLR,,0.00,WeatherDisplay:10.37,2013-09-08 22:52:00,
2013-09-08 18:57:00,80.8,68.4,29.92,North,355,0.0,0.0,66,0.00,CLR,,0.00,WeatherDisplay:10.37,2013-09-08 22:57:00,
2013-09-08 19:02:00,80.3,68.3,29.92,ENE,67,0.0,0.0,67,0.00,CLR,,0.00,WeatherDisplay:10.37,2013-09-08 23:02:00,
2013-09-08 19:07:00,80.0,68.9,29.92,SSE,160,0.0,0.0,69,0.00,CLR,,0.00,WeatherDisplay:10.37,2013-09-08 23:07:00,
2013-09-08 19:12:00,79.7,69.5,29.92,SSE,160,0.0,0.0,71,0.00,CLR,,0.00,WeatherDisplay:10.37,2013-09-08 23:12:00,
2013-09-08 19:17:00,79.2,69.4,29.92,SSE,160,0.0,0.0,72,0.00,CLR,,0.00,WeatherDisplay:10.37,2013-09-08 23:17:00,
2013-09-08 19:22:00,78.9,69.5,29.92,SSE,160,0.0,0.0,73,0.00,CLR,,0.00,WeatherDisplay:10.37,2013-09-08 23:22:00,
2013-09-08 19:27:00,78.7,69.3,29.92,SSW,213,0.0,0.0,73,0.00,CLR,,0.00,WeatherDisplay:10.37,2013-09-08 23:27:00,
2013-09-08 19:32:00,78.3,68.5,29.93,North,9,0.0,0.0,72,0.00,CLR,,0.00,WeatherDisplay:10.37,2013-09-08 23:32:00,
2013-09-08 19:37:00,77.9,68.5,29.93,North,9,0.0,0.0,73,0.00,CLR,,0.00,WeatherDisplay:10.37,2013-09-08 23:37:00,
2013-09-08 19:42:00,77.6,68.7,29.93,North,9,0.0,0.0,74,0.00,CLR,,0.00,WeatherDisplay:10.37,2013-09-08 23:42:00,
2013-09-08 19:47:00,77.4,68.9,29.93,North,9,0.0,0.0,75,0.00,CLR,,0.00,WeatherDisplay:10.37,2013-09-08 23:47:00,
2013-09-08 19:52:00,77.1,68.6,29.93,North,9,0.0,0.0,75,0.00,CLR,,0.00,WeatherDisplay:10.37,2013-09-08 23:52:00,
2013-09-08 19:57:00,76.9,68.4,29.93,North,9,0.0,0.0,75,0.00,CLR,,0.00,WeatherDisplay:10.37,2013-09-08 23:57:00,
2013-09-08 20:02:00,76.7,68.9,29.93,North,9,0.0,0.0,77,0.00,CLR,,0.00,WeatherDisplay:10.37,2013-09-09 00:02:00,
2013-09-08 20:07:00,76.5,68.7,29.93,North,9,0.0,0.0,77,0.00,CLR,,0.00,WeatherDisplay:10.37,2013-09-09 00:07:00,
2013-09-08 20:12:00,76.3,68.6,29.93,North,9,0.0,0.0,77,0.00,CLR,,0.00,WeatherDisplay:10.37,2013-09-09 00:12:00,
2013-09-08 20:17:00,76.1,68.4,29.93,North,9,0.0,0.0,77,0.00,CLR,,0.00,WeatherDisplay:10.37,2013-09-09 00:17:00,
2013-09-08 20:22:00,75.7,67.6,29.94,North,9,0.0,0.0,76,0.00,CLR,,0.00,WeatherDisplay:10.37,2013-09-09 00:22:00,
2013-09-08 20:27:00,75.5,67.4,29.94,North,9,0.0,0.0,76,0.00,CLR,,0.00,WeatherDisplay:10.37,2013-09-09 00:27:00,
2013-09-08 20:32:00,75.4,67.7,29.94,North,9,0.0,0.0,77,0.00,CLR,,0.00,WeatherDisplay:10.37,2013-09-09 00:32:00,
2013-09-08 20:37:00,75.3,68.0,29.94,North,9,0.0,0.0,78,0.00,CLR,,0.00,WeatherDisplay:10.37,2013-09-09 00:37:00,
2013-09-08 20:42:00,75.3,68.3,29.94,North,9,0.0,0.0,79,0.00,CLR,,0.00,WeatherDisplay:10.37,2013-09-09 00:42:00,
2013-09-08 20:47:00,75.1,68.1,29.94,North,9,0.0,0.0,79,0.00,CLR,,0.00,WeatherDisplay:10.37,2013-09-09 00:47:00,
2013-09-08 20:52:00,75.0,67.7,29.94,North,9,0.0,0.0,78,0.00,CLR,,0.00,WeatherDisplay:10.37,2013-09-09 00:52:00,
2013-09-08 20:57:00,74.8,67.5,29.94,North,9,0.0,0.0,78,0.00,CLR,,0.00,WeatherDisplay:10.37,2013-09-09 00:57:00,
2013-09-08 21:02:00,74.5,67.2,29.95,North,9,0.0,0.0,78,0.00,CLR,,0.00,WeatherDisplay:10.37,2013-09-09 01:02:00,
2013-09-08 21:07:00,74.4,67.1,29.95,North,9,0.0,0.0,78,0.00,CLR,,0.00,WeatherDisplay:10.37,2013-09-09 01:07:00,
2013-09-08 21:12:00,74.2,67.3,29.95,North,9,0.0,0.0,79,0.00,CLR,,0.00,WeatherDisplay:10.37,2013-09-09 01:12:00,
2013-09-08 21:17:00,73.9,67.3,29.95,North,9,0.0,0.0,80,0.00,CLR,,0.00,WeatherDisplay:10.37,2013-09-09 01:17:00,
2013-09-08 21:22:00,73.7,67.1,29.96,North,9,0.0,0.0,80,0.00,CLR,,0.00,WeatherDisplay:10.37,2013-09-09 01:22:00,
2013-09-08 21:27:00,73.4,67.2,29.96,North,9,0.0,0.0,81,0.00,CLR,,0.00,WeatherDisplay:10.37,2013-09-09 01:27:00,
2013-09-08 21:32:00,73.2,67.4,29.96,North,9,0.0,0.0,82,0.00,CLR,,0.00,WeatherDisplay:10.37,2013-09-09 01:32:00,
2013-09-08 21:37:00,73.0,67.5,29.97,North,9,0.0,0.0,83,0.00,CLR,,0.00,WeatherDisplay:10.37,2013-09-09 01:37:00,
2013-09-08 21:42:00,72.7,67.2,29.97,North,9,0.0,0.0,83,0.00,CLR,,0.00,WeatherDisplay:10.37,2013-09-09 01:42:00,
2013-09-08 21:47:00,72.5,67.0,29.97,North,9,0.0,0.0,83,0.00,CLR,,0.00,WeatherDisplay:10.37,2013-09-09 01:47:00,
2013-09-08 21:52:00,72.3,66.8,29.97,North,9,0.0,0.0,83,0.00,CLR,,0.00,WeatherDisplay:10.37,2013-09-09 01:52:00,
2013-09-08 21:57:00,72.1,66.6,29.97,North,9,0.0,0.0,83,0.00,CLR,,0.00,WeatherDisplay:10.37,2013-09-09 01:57:00,
2013-09-08 22:02:00,72.0,67.2,29.97,North,9,0.0,0.0,85,0.00,CLR,,0.00,WeatherDisplay:10.37,2013-09-09 02:02:00,
2013-09-08 22:07:00,71.9,67.1,29.97,North,9,0.0,0.0,85,0.00,CLR,,0.00,WeatherDisplay:10.37,2013-09-09 02:07:00,
2013-09-08 22:12:00,71.8,67.4,29.97,North,9,0.0,0.0,86,0.00,CLR,,0.00,WeatherDisplay:10.37,2013-09-09 02:12:00,
2013-09-08 22:17:00,71.8,67.7,29.97,North,9,0.0,0.0,87,0.00,CLR,,0.00,WeatherDisplay:10.37,2013-09-09 02:17:00,
2013-09-08 22:22:00,71.6,67.2,29.97,North,9,0.0,0.0,86,0.00,CLR,,0.00,WeatherDisplay:10.37,2013-09-09 02:22:00,
2013-09-08 22:27:00,71.5,66.8,29.97,North,9,0.0,0.0,85,0.00,CLR,,0.00,WeatherDisplay:10.37,2013-09-09 02:27:00,
2013-09-08 22:32:00,71.4,66.7,29.97,North,9,0.0,0.0,85,0.00,CLR,,0.00,WeatherDisplay:10.37,2013-09-09 02:32:00,
2013-09-08 22:37:00,71.3,66.9,29.97,North,9,0.0,0.0,86,0.00,CLR,,0.00,WeatherDisplay:10.37,2013-09-09 02:37:00,
2013-09-08 22:42:00,71.3,66.9,29.98,North,9,0.0,0.0,86,0.00,CLR,,0.00,WeatherDisplay:10.37,2013-09-09 02:42:00,
2013-09-08 22:47:00,71.3,67.2,29.98,North,9,0.0,0.0,87,0.00,CLR,,0.00,WeatherDisplay:10.37,2013-09-09 02:47:00,
2013-09-08 22:52:00,71.1,66.7,29.98,North,9,0.0,0.0,86,0.00,CLR,,0.00,WeatherDisplay:10.37,2013-09-09 02:52:00,
2013-09-08 22:57:00,71.0,66.6,29.98,North,9,0.0,0.0,86,0.00,CLR,,0.00,WeatherDisplay:10.37,2013-09-09 02:57:00,
2013-09-08 23:02:00,70.9,66.5,29.98,North,9,0.0,0.0,86,0.00,CLR,,0.00,WeatherDisplay:10.37,2013-09-09 03:02:00,
2013-09-08 23:07:00,70.8,66.7,29.98,North,9,0.0,0.0,87,0.00,CLR,,0.00,WeatherDisplay:10.37,2013-09-09 03:07:00,
2013-09-08 23:12:00,70.7,66.6,29.99,North,9,0.0,0.0,87,0.00,CLR,,0.00,WeatherDisplay:10.37,2013-09-09 03:12:00,
2013-09-08 23:17:00,70.5,66.4,29.99,North,9,0.0,0.0,87,0.00,CLR,,0.00,WeatherDisplay:10.37,2013-09-09 03:17:00,
2013-09-08 23:22:00,70.4,66.3,29.98,North,9,0.0,0.0,87,0.00,CLR,,0.00,WeatherDisplay:10.37,2013-09-09 03:22:00,
2013-09-08 23:27:00,70.2,66.5,29.99,North,9,0.0,0.0,88,0.00,CLR,,0.00,WeatherDisplay:10.37,2013-09-09 03:27:00,
2013-09-08 23:32:00,70.1,66.4,29.99,North,9,0.0,0.0,88,0.00,CLR,,0.00,WeatherDisplay:10.37,2013-09-09 03:32:00,
2013-09-08 23:37:00,70.0,66.0,29.99,North,9,0.0,0.0,87,0.00,CLR,,0.00,WeatherDisplay:10.37,2013-09-09 03:37:00,
2013-09-08 23:42:00,69.9,66.5,29.99,North,9,0.0,0.0,89,0.00,CLR,,0.00,WeatherDisplay:10.37,2013-09-09 03:42:00,
2013-09-08 23:47:00,69.8,66.4,29.99,North,9,0.0,0.0,89,0.00,CLR,,0.00,WeatherDisplay:10.37,2013-09-09 03:47:00,
2013-09-08 23:52:00,69.7,66.3,29.99,North,9,0.0,0.0,89,0.00,CLR,,0.00,WeatherDisplay:10.37,2013-09-09 03:52:00,
2013-09-08 23:57:00,69.6,66.2,29.99,North,9,0.0,0.0,89,0.00,CLR,,0.00,WeatherDisplay:10.37,2013-09-09 03:57:00,